Tiempo cada hora Bolshie Eysmonty

Hoy, 31 Julio, Sábado

Tiempo Temperatura Precipitaciones Viento Presión Humedad
00:00 +17°C° 0 mm 3 mps 744 mmHg 70%
01:00 +17°C° 0 mm 3 mps 744 mmHg 72%
02:00 +16°C° 0 mm 3 mps 744 mmHg 73%
03:00 +16°C° 0 mm 3 mps 744 mmHg 76%
04:00 +16°C° 0 mm 3 mps 744 mmHg 78%
05:00 +14°C° 0 mm 3 mps 744 mmHg 80%
06:00 +17°C° 0 mm 3 mps 744 mmHg 76%
07:00 +19°C° 0 mm 3 mps 744 mmHg 72%
08:00 +21°C° 0 mm 3 mps 744 mmHg 68%
09:00 +22°C° 0 mm 3 mps 745 mmHg 63%
10:00 +25°C° 0 mm 3 mps 745 mmHg 57%
11:00 +26°C° 0 mm 3 mps 745 mmHg 52%
12:00 +27°C° 0 mm 3 mps 744 mmHg 50%
13:00 +28°C° 0 mm 3 mps 744 mmHg 48%
14:00 +29°C° 0 mm 3 mps 744 mmHg 46%
15:00 +29°C° 0 mm 3 mps 744 mmHg 47%
16:00 +29°C° 0 mm 2 mps 743 mmHg 48%
17:00 +29°C° 0 mm 2 mps 743 mmHg 49%
18:00 +27°C° 0.4 mm 2 mps 743 mmHg 60%
19:00 +25°C° 0.4 mm 2 mps 743 mmHg 70%
20:00 +21°C° 0.4 mm 2 mps 743 mmHg 81%
21:00 +20°C° 0.9 mm 3 mps 744 mmHg 85%
22:00 +19°C° 0.9 mm 3 mps 744 mmHg 90%
23:00 +19°C° 0.9 mm 4 mps 744 mmHg 94%

Mañana, 1 Agosto, Domingo

Tiempo Temperatura Precipitaciones Viento Presión Humedad
00:00 +18°C° 0 mm 4 mps 744 mmHg 94%
01:00 +18°C° 0 mm 4 mps 744 mmHg 95%
02:00 +18°C° 0 mm 3 mps 744 mmHg 95%
03:00 +17°C° 0 mm 3 mps 744 mmHg 94%
04:00 +16°C° 0 mm 3 mps 745 mmHg 93%
05:00 +14°C° 0 mm 3 mps 745 mmHg 93%
06:00 +17°C° 0 mm 3 mps 745 mmHg 86%
07:00 +18°C° 0 mm 4 mps 745 mmHg 80%
08:00 +19°C° 0 mm 4 mps 746 mmHg 74%
09:00 +20°C° 0 mm 4 mps 746 mmHg 67%
10:00 +22°C° 0 mm 4 mps 746 mmHg 60%
11:00 +23°C° 0 mm 4 mps 746 mmHg 53%
12:00 +25°C° 0 mm 4 mps 746 mmHg 50%
13:00 +26°C° 0 mm 4 mps 745 mmHg 48%
14:00 +26°C° 0 mm 3 mps 745 mmHg 46%
15:00 +25°C° 0 mm 3 mps 745 mmHg 54%
16:00 +22°C° 0 mm 3 mps 745 mmHg 62%
17:00 +21°C° 0 mm 3 mps 745 mmHg 69%
18:00 +20°C° 0.2 mm 3 mps 745 mmHg 75%
19:00 +19°C° 0.2 mm 3 mps 744 mmHg 81%
20:00 +18°C° 0.2 mm 3 mps 744 mmHg 87%
21:00 +17°C° 0.4 mm 3 mps 744 mmHg 90%
22:00 +17°C° 0.4 mm 2 mps 744 mmHg 93%
23:00 +16°C° 0.4 mm 2 mps 744 mmHg 96%

Pasado mañana, 2 Agosto, Lunes

Tiempo Temperatura Precipitaciones Viento Presión Humedad
00:00 +17°C° 0.6 mm 2 mps 744 mmHg 96%
01:00 +17°C° 0.6 mm 2 mps 743 mmHg 96%
02:00 +17°C° 0.6 mm 2 mps 743 mmHg 97%
03:00 +16°C° 0.3 mm 3 mps 743 mmHg 97%
04:00 +16°C° 0.3 mm 3 mps 742 mmHg 97%
05:00 +16°C° 0.3 mm 3 mps 742 mmHg 97%
06:00 +16°C° 1.7 mm 3 mps 742 mmHg 97%
07:00 +16°C° 1.7 mm 3 mps 742 mmHg 97%
08:00 +16°C° 1.7 mm 3 mps 742 mmHg 97%
09:00 +16°C° 1.3 mm 3 mps 743 mmHg 95%
10:00 +16°C° 1.3 mm 3 mps 743 mmHg 94%
11:00 +16°C° 1.3 mm 3 mps 743 mmHg 93%
12:00 +17°C° 0.4 mm 3 mps 743 mmHg 92%
13:00 +17°C° 0.4 mm 3 mps 744 mmHg 91%
14:00 +17°C° 0.4 mm 3 mps 744 mmHg 90%
15:00 +17°C° 0.3 mm 3 mps 744 mmHg 89%
16:00 +18°C° 0.3 mm 3 mps 744 mmHg 87%
17:00 +18°C° 0.3 mm 3 mps 744 mmHg 86%
18:00 +17°C° 0.1 mm 3 mps 745 mmHg 87%
19:00 +17°C° 0.1 mm 2 mps 745 mmHg 88%
20:00 +17°C° 0.1 mm 2 mps 745 mmHg 88%
21:00 +16°C° 0 mm 2 mps 745 mmHg 89%
22:00 +16°C° 0 mm 2 mps 746 mmHg 90%
23:00 +16°C° 0 mm 2 mps 746 mmHg 91%

3 Agosto, Martes

Tiempo Temperatura Precipitaciones Viento Presión Humedad
00:00 +16°C° 0.1 mm 2 mps 746 mmHg 91%
01:00 +15°C° 0.1 mm 2 mps 746 mmHg 92%
02:00 +15°C° 0.1 mm 2 mps 746 mmHg 92%
03:00 +15°C° 0 mm 2 mps 746 mmHg 93%
04:00 +14°C° 0 mm 3 mps 747 mmHg 94%
05:00 +14°C° 0 mm 3 mps 747 mmHg 94%
06:00 +14°C° 0 mm 3 mps 747 mmHg 88%
07:00 +15°C° 0 mm 4 mps 747 mmHg 82%
08:00 +16°C° 0 mm 5 mps 748 mmHg 76%
09:00 +17°C° 0.1 mm 5 mps 748 mmHg 72%
10:00 +19°C° 0.1 mm 5 mps 748 mmHg 68%
11:00 +20°C° 0.1 mm 6 mps 748 mmHg 64%
12:00 +20°C° 0.3 mm 5 mps 748 mmHg 66%
13:00 +20°C° 0.3 mm 5 mps 748 mmHg 68%
14:00 +20°C° 0.3 mm 5 mps 749 mmHg 70%
15:00 +20°C° 0.3 mm 5 mps 749 mmHg 69%
16:00 +21°C° 0.3 mm 4 mps 749 mmHg 69%
17:00 +21°C° 0.3 mm 4 mps 749 mmHg 68%
18:00 +20°C° 0.2 mm 4 mps 749 mmHg 73%
19:00 +18°C° 0.2 mm 3 mps 749 mmHg 78%
20:00 +17°C° 0.2 mm 2 mps 750 mmHg 84%
21:00 +16°C° 0 mm 2 mps 750 mmHg 85%
22:00 +15°C° 0 mm 2 mps 750 mmHg 86%
23:00 +15°C° 0 mm 1 mps 750 mmHg 87%

4 Agosto, Miércoles

Tiempo Temperatura Precipitaciones Viento Presión Humedad
00:00 +14°C° 0 mm 1 mps 750 mmHg 86%
01:00 +14°C° 0 mm 1 mps 750 mmHg 86%
02:00 +13°C° 0 mm 0 mps 750 mmHg 86%
03:00 +14°C° 0 mm 1 mps 750 mmHg 86%
04:00 +14°C° 0 mm 1 mps 750 mmHg 87%
05:00 +14°C° 0 mm 1 mps 750 mmHg 87%
06:00 +15°C° 0 mm 2 mps 750 mmHg 83%
07:00 +16°C° 0 mm 2 mps 750 mmHg 80%
08:00 +18°C° 0 mm 2 mps 750 mmHg 76%
09:00 +19°C° 0 mm 2 mps 750 mmHg 69%
10:00 +21°C° 0 mm 2 mps 750 mmHg 62%
11:00 +22°C° 0 mm 3 mps 750 mmHg 55%
12:00 +24°C° 0 mm 3 mps 750 mmHg 52%
13:00 +25°C° 0 mm 3 mps 749 mmHg 50%
14:00 +25°C° 0 mm 3 mps 749 mmHg 47%
15:00 +25°C° 0 mm 3 mps 749 mmHg 50%
16:00 +25°C° 0 mm 3 mps 749 mmHg 52%
17:00 +25°C° 0 mm 3 mps 748 mmHg 55%
18:00 +22°C° 0 mm 3 mps 748 mmHg 62%
19:00 +21°C° 0 mm 3 mps 748 mmHg 68%
20:00 +19°C° 0 mm 3 mps 748 mmHg 75%
21:00 +18°C° 0 mm 3 mps 747 mmHg 75%
22:00 +18°C° 0 mm 3 mps 747 mmHg 75%
23:00 +18°C° 0 mm 3 mps 747 mmHg 75%

5 Agosto, Jueves

Tiempo Temperatura Precipitaciones Viento Presión Humedad
00:00 +17°C° 0.2 mm 3 mps 747 mmHg 81%
01:00 +16°C° 0.2 mm 3 mps 746 mmHg 86%
02:00 +16°C° 0.2 mm 3 mps 746 mmHg 92%
03:00 +16°C° 0.7 mm 3 mps 746 mmHg 93%
04:00 +15°C° 0.7 mm 4 mps 745 mmHg 95%
05:00 +15°C° 0.7 mm 5 mps 745 mmHg 96%
06:00 +17°C° 1.9 mm 4 mps 745 mmHg 97%
07:00 +17°C° 1.9 mm 4 mps 744 mmHg 97%
08:00 +17°C° 1.9 mm 4 mps 744 mmHg 97%
09:00 +17°C° 2.1 mm 4 mps 744 mmHg 96%
10:00 +18°C° 2.1 mm 3 mps 744 mmHg 94%
11:00 +18°C° 2.1 mm 3 mps 744 mmHg 93%
12:00 +19°C° 0.9 mm 3 mps 744 mmHg 89%
13:00 +20°C° 0.9 mm 4 mps 744 mmHg 85%
14:00 +21°C° 0.9 mm 4 mps 744 mmHg 81%
15:00 +21°C° 0.5 mm 4 mps 744 mmHg 80%
16:00 +21°C° 0.5 mm 5 mps 744 mmHg 79%
17:00 +21°C° 0.5 mm 5 mps 743 mmHg 79%
18:00 +20°C° 0.1 mm 4 mps 744 mmHg 81%
19:00 +19°C° 0.1 mm 3 mps 744 mmHg 83%
20:00 +18°C° 0.1 mm 2 mps 744 mmHg 86%
21:00 +17°C° 0 mm 2 mps 744 mmHg 87%
22:00 +16°C° 0 mm 2 mps 744 mmHg 89%
23:00 +16°C° 0 mm 2 mps 744 mmHg 91%
Mostrar más